Weather History for Guymon, OK

Change the Weather History Date:

Saturday, November 16, 2013

  Actual Average Record
Temperature  
Mean Temperature 61 °F 46 °F  
Max Temperature 73 °F 61 °F 80 °F (1999)
Min Temperature 49 °F 31 °F 14 °F (2005)
Degree Days  
Heating Degree Days 4 19  
Month to date heating degree days 252 261  
Since 1 July heating degree days 523 570  
Cooling Degree Days 0 0  
Month to date cooling degree days 0 0  
Year to date cooling degree days 1846 1481  
Growing Degree Days 12 (Base 50)    
Moisture  
Dew Point 34 °F    
Average Humidity 40    
Maximum Humidity 59    
Minimum Humidity 20    
Precipitation  
Precipitation 0.00 in 0.02 in 0.14 in (2014)
Month to date precipitation 0.18 0.32  
Year to date precipitation 14.50 18.45  
Snow  
Snow 0.00 in - - ()
Month to date snowfall 0.0  
Since 1 July snowfall T  
Since 1 September snowfall T  
Snow Depth 0.00 in    
Sea Level Pressure  
Sea Level Pressure 29.38 in    
Wind  
Wind Speed 25 mph (SW)    
Max Wind Speed 40 mph    
Max Gust Speed 53 mph    
Visibility 10 miles    
Events      
T = Trace of Precipitation, MM = Missing Value Source: NWS Daily Summary

Daily Weather History Graph

Daily Weather History Graph

Search for Another Location

Airport:

Trip Planner

Search our weather history database for the weather conditions in past years. The results will help you decide how hot, cold, wet, or windy it might be!

Date:

Astronomy

Nov. 16, 2013 Rise Set
Actual Time 7:25 AM CST 5:36 PM CST
Civil Twilight 6:57 AM CST 6:03 PM CST
Nautical Twilight 6:26 AM CST 6:35 PM CST
Astronomical Twilight 5:55 AM CST 7:05 PM CST
Moon 5:11 PM CST (11/16) 6:24 AM CST (11/16)
Length of Visible Light 11h 06m
Length of Day
10h 10m
Waxing Gibbous, 99% of the Moon is Illuminated
Nov 16
Waxing Gibbous
Nov 17
Full
Nov 25
Last Quarter
Dec 2
New
Dec 9
First Quarter

Hourly Weather History & Observations

Time (CST) Temp. Dew Point Humidity Pressure Visibility Wind Dir Wind Speed Gust Speed Precip Events Conditions
12:53 AM 59.0 °F 39.0 °F 48% 29.45 in 10.0 mi SW 20.7 mph 26.5 mph N/A   Clear
1:53 AM 57.9 °F 39.0 °F 49% 29.43 in 10.0 mi SW 19.6 mph 28.8 mph N/A   Clear
2:53 AM 59.0 °F 39.9 °F 49% 29.44 in 10.0 mi SW 21.9 mph 36.8 mph N/A   Clear
3:53 AM 57.0 °F 39.9 °F 53% 29.42 in 10.0 mi SW 19.6 mph - N/A   Clear
4:53 AM 55.9 °F 41.0 °F 57% 29.42 in 10.0 mi SSW 19.6 mph - N/A   Clear
5:53 AM 55.9 °F 41.0 °F 57% 29.40 in 10.0 mi SSW 28.8 mph 36.8 mph N/A   Clear
6:53 AM 55.0 °F 39.9 °F 57% 29.40 in 10.0 mi SW 25.3 mph 33.4 mph N/A   Clear
7:53 AM 55.9 °F 39.9 °F 55% 29.44 in 10.0 mi SW 26.5 mph 33.4 mph N/A   Clear
8:53 AM 59.0 °F 39.9 °F 49% 29.44 in 10.0 mi SW 29.9 mph 38.0 mph N/A   Clear
9:53 AM 63.0 °F 39.9 °F 43% 29.43 in 10.0 mi SW 27.6 mph 43.7 mph N/A   Clear
10:53 AM 66.9 °F 37.9 °F 34% 29.41 in 10.0 mi SW 33.4 mph 46.0 mph N/A   Clear
11:53 AM 70.0 °F 37.0 °F 30% 29.38 in 10.0 mi WSW 31.1 mph 43.7 mph N/A   Clear
12:53 PM 72.0 °F 34.0 °F 25% 29.32 in 10.0 mi SW 31.1 mph 47.2 mph N/A   Clear
1:53 PM 72.0 °F 30.0 °F 21% 29.29 in 10.0 mi SW 38.0 mph 48.3 mph N/A   Partly Cloudy
2:17 PM 71.6 °F 28.4 °F 20% 29.40 in 10.0 mi SW 35.7 mph 46.0 mph N/A   Mostly Cloudy
2:46 PM 71.6 °F 28.4 °F 20% 29.40 in 10.0 mi SW 35.7 mph 48.3 mph N/A   Mostly Cloudy
2:53 PM 72.0 °F 28.9 °F 20% 29.29 in 10.0 mi SW 33.4 mph 48.3 mph N/A   Scattered Clouds
3:53 PM 72.0 °F 28.9 °F 20% 29.28 in 10.0 mi SW 33.4 mph 43.7 mph N/A   Clear
4:53 PM 70.0 °F 28.0 °F 21% 29.29 in 10.0 mi SW 29.9 mph 43.7 mph N/A   Clear
5:53 PM 66.0 °F 28.9 °F 25% 29.31 in 10.0 mi SW 29.9 mph 34.5 mph N/A   Clear
6:53 PM 64.0 °F 28.9 °F 27% 29.36 in 10.0 mi SW 25.3 mph 34.5 mph N/A   Clear
7:53 PM 62.1 °F 28.0 °F 28% 29.37 in 10.0 mi SW 26.5 mph 33.4 mph N/A   Clear
8:53 PM 61.0 °F 28.9 °F 30% 29.40 in 10.0 mi SW 17.3 mph 26.5 mph N/A   Clear
9:53 PM 57.9 °F 30.0 °F 35% 29.41 in 10.0 mi SW 15.0 mph - N/A   Clear
10:53 PM 53.1 °F 30.9 °F 43% 29.40 in 10.0 mi SSW 10.4 mph - N/A   Clear
11:53 PM 48.9 °F 30.9 °F 50% 29.40 in 10.0 mi Calm Calm - N/A   Clear